FW2259 Weather Reports


time (UTC)temp
F
wind
direction
speed
knots
gust
knots
rain 1hr
in
rain 24hr
in
rain mn
in
humidity
%
barometer
mb
20260506183000 59 197 0.0 0.0 0.00 0.05 0.05 86 1011.1
20260506181600 61 197 0.0 4.3 0.00 0.05 0.05 81 1011.0
20260506181501 61 197 0.0 4.3 0.00 0.05 0.05 81 1011.0
20260506180059 60 140 0.9 3.5 0.00 0.05 0.05 83 1010.7
20260506174559 61 331 0.0 1.7 0.00 0.05 0.05 86 1010.9
20260506173111 61 331 0.0 0.9 0.00 0.05 0.05 85 1010.9
20260506171607 62 331 0.0 3.5 0.00 0.05 0.05 84 1010.8
20260506164612 62 323 0.0 4.3 0.00 0.05 0.05 86 1011.0
20260506163102 61 327 0.0 3.5 0.00 0.05 0.05 86 1011.0
20260506161553 62 302 0.0 3.5 0.00 0.05 0.05 85 1011.2
20260506160104 63 331 1.7 4.3 0.00 0.05 0.05 86 1011.3
20260506154552 61 312 0.9 6.1 0.00 0.05 0.05 88 1011.6
20260506153045 60 298 0.9 5.2 0.00 0.05 0.05 90 1011.7
20260506151543 60 292 0.9 2.6 0.00 0.05 0.05 90 1011.7
20260506150041 60 318 1.7 5.2 0.00 0.05 0.05 91 1011.9
20260506144543 59 276 0.9 5.2 0.01 0.05 0.05 92 1011.9
20260506143039 59 346 0.0 4.3 0.01 0.05 0.05 92 1012.0
20260506140039 59 265 0.9 3.5 0.01 0.05 0.05 92 1012.1
20260506134536 59 242 0.9 6.1 0.00 0.04 0.04 90 1012.3
20260506133034 60 337 0.9 5.2 0.00 0.04 0.04 92 1012.2
20260506131538 60 5 0.0 1.7 0.00 0.04 0.04 91 1012.3
20260506130031 60 310 0.9 3.5 0.00 0.04 0.04 91 1012.3
20260506124534 59 313 0.0 1.7 0.00 0.04 0.04 91 1012.3
20260506123038 59 311 0.0 3.5 0.00 0.04 0.04 90 1012.5
20260506121527 60 257 0.9 5.2 0.01 0.04 0.04 90 1012.5
20260506120036 59 288 0.9 4.3 0.01 0.04 0.04 92 1012.6
20260506114527 58 313 0.9 3.5 0.01 0.04 0.04 92 1012.6
20260506113026 58 329 0.0 1.7 0.01 0.04 0.04 92 1012.6
20260506111524 58 278 0.9 3.5 0.01 0.03 0.03 91 1012.7
20260506110026 59 232 0.0 3.5 0.01 0.03 0.03 92 1012.8
20260506104522 59 299 0.9 4.3 0.01 0.03 0.03 92 1012.9
20260506103028 59 324 0.0 1.7 0.01 0.03 0.03 92 1013.0
20260506101522 59 326 0.0 1.7 0.01 0.02 0.02 92 1013.2
20260506100022 58 226 0.0 3.5 0.01 0.02 0.02 93 1013.2
20260506094530 59 298 0.0 4.3 0.02 0.02 0.02 91 1013.3
20260506093029 60 199 0.0 0.0 0.02 0.02 0.02 90 1013.3
20260506091523 60 182 0.0 0.0 0.02 0.02 0.02 89 1013.2
20260506090018 60 182 0.0 0.0 0.02 0.02 0.02 89 1013.2
20260506084517 60 182 0.0 0.0 0.01 0.01 0.01 89 1013.3
20260506083016 60 182 0.0 0.0 0.00 0.00 0.00 87 1013.1
20260506081513 60 115 0.0 0.9 0.00 0.00 0.00 87 1012.9
20260506073006 59 115 0.9 4.3 0.00 0.00 0.00 84 1012.7
20260506071507 60 162 0.0 5.2 0.00 0.00 0.00 85 1012.9
20260506061544 56 317 0.0 0.9 0.00 0.00 0.00 91 1012.9
20260506044551 54 317 0.0 1.7 0.00 0.00 0.00 90 1012.8
20260506043036 55 317 0.0 2.6 0.00 0.00 0.00 89 1012.7
20260506041546 55 323 0.0 5.2 0.00 0.00 0.00 89 1012.6
20260506040041 56 308 0.0 3.5 0.00 0.00 0.00 88 1012.7
20260506034535 56 305 0.0 3.5 0.00 0.00 0.00 87 1012.8
20260506033034 56 279 0.0 0.0 0.00 0.00 0.00 88 1012.8
20260506031541 56 279 0.0 1.7 0.00 0.00 0.00 88 1012.9
20260506030032 55 279 0.0 0.9 0.00 0.00 0.00 89 1012.9
20260506024535 55 279 0.0 0.9 0.00 0.00 0.00 88 1013.0
20260506023032 56 283 0.0 1.7 0.00 0.00 0.00 88 1013.0
20260506021530 55 278 0.0 0.9 0.00 0.00 0.00 88 1013.1
20260506020030 56 278 0.0 1.7 0.00 0.00 0.00 87 1013.1
20260506014529 56 262 0.0 5.2 0.00 0.00 0.00 87 1013.0
20260506013028 56 279 0.0 0.9 0.00 0.00 0.00 88 1013.1
20260506011529 56 279 0.0 3.5 0.00 0.00 0.00 86 1012.9
20260506010031 56 269 0.0 3.5 0.00 0.00 0.00 87 1013.0
20260506004536 55 311 0.9 3.5 0.00 0.00 0.00 88 1012.9
20260506003024 55 329 0.0 0.0 0.00 0.00 0.00 87 1012.9
20260506001521 56 318 0.9 3.5 0.00 0.00 0.00 85 1013.0
20260506000019 56 355 1.7 4.3 0.00 0.00 0.00 85 1013.1
20260505234533 56 360 0.0 4.3 0.00 0.00 0.00 85 1013.3
20260505233018 56 309 0.9 5.2 0.00 0.00 0.00 85 1013.3
20260505231516 56 320 0.9 5.2 0.00 0.00 0.00 84 1013.3
20260505230015 57 302 1.7 6.1 0.00 0.00 0.00 83 1013.4
20260505224514 57 313 1.7 6.1 0.00 0.00 0.00 83 1013.7
20260505223012 57 300 2.6 7.8 0.00 0.00 0.00 83 1013.8
20260505221508 56 300 0.9 4.3 0.00 0.00 0.00 84 1013.8
20260505220009 56 296 0.9 4.3 0.00 0.00 0.00 84 1013.8
20260505214507 56 360 1.7 4.3 0.00 0.00 0.00 84 1013.8
20260505213005 56 281 0.0 4.3 0.00 0.00 0.00 84 1013.9
20260505211505 56 253 0.9 6.1 0.00 0.00 0.00 83 1014.0
20260505210009 57 294 0.0 3.5 0.00 0.00 0.00 84 1014.1
20260505204503 56 276 0.0 7.0 0.00 0.00 0.00 85 1014.1
20260505203003 56 295 0.9 2.6 0.00 0.00 0.00 86 1014.1
20260505201504 56 317 0.9 4.3 0.00 0.00 0.00 86 1014.1
20260505200002 56 254 0.0 1.7 0.00 0.00 0.00 86 1014.1
20260505194502 56 254 0.0 3.5 0.00 0.00 0.00 85 1014.0
20260505193001 57 267 0.9 5.2 0.00 0.00 0.00 85 1014.0
20260505191501 58 142 0.9 6.1 0.00 0.00 0.00 84 1013.9
20260505190111 58 36 2.6 7.0 0.00 0.00 0.00 83 1013.7
20260505184601 58 261 0.0 4.3 0.00 0.00 0.00 83 1013.6